Regional Weather Roundup
Issued by NWS Charleston, WV

Home | Current Version | Previous Version | Text Only | Print | Product List | Glossary Off
Versions: 1 2 3 4 5 6 7 8 9 10 11 12 13 14 15 16 17 18 19 20 21 22 23 24 25 26 27 28 29 30 31 32 33 34 35 36 37 38 39 40 41 42 43 44 45 46 47 48 49 50

000
ASUS41 KRLX 020510
RWRRLX
West Virginia Regional Weather Roundup
National Weather Service Charleston WV
1200 AM EST MON MAR 02 2015

Note: "fair" indicates few or no clouds below 12,000 feet with no
significant weather and/or obstructions to visibility.

WVZ003-020600-
Northern Panhandle of West Virginia

CITY           SKY/WX    TMP DP  RH WIND       PRES   REMARKS
WHEELING       CLOUDY    33  30  88 W9        30.18S
$$

WVZ009-020600-
Northwest West Virginia

CITY           SKY/WX    TMP DP  RH WIND       PRES   REMARKS
PARKERSBURG    LGT RAIN  36  32  85 W8        30.27R FOG
$$

WVZ006-020600-
Western West Virginia

CITY           SKY/WX    TMP DP  RH WIND       PRES   REMARKS
HUNTINGTON     CLOUDY    37  37 100 W5        30.26S FOG
$$

WVZ015-020600-
West Central West Virginia

CITY           SKY/WX    TMP DP  RH WIND       PRES   REMARKS
CHARLESTON     LGT RAIN  42  41  96 VRB6      30.23F VSB 1
$$

WVZ022-031-020600-
North Central West Virginia

CITY           SKY/WX    TMP DP  RH WIND       PRES   REMARKS
CLARKSBURG     LGT RAIN  39  37  92 W12       30.18F
MORGANTOWN     LGT RAIN  39  34  82 SW8       30.17S
$$

WVZ025-035-042-045-020600-
Southern West Virginia

CITY           SKY/WX    TMP DP  RH WIND       PRES   REMARKS
BECKLEY        FOG       42  40  92 W8        30.19F VSB 1/4
LOGAN          MIX PCPN  43  43 100 CALM      30.19S VSB<1/4
BLUEFIELD      CLOUDY    45  42  89 W14       30.20F
LEWISBURG      FOG       37  36  96 CALM      30.19F VSB 1/2
$$

WVZ047-020600-
Northern Mountains of West Virginia

CITY           SKY/WX    TMP DP  RH WIND       PRES   REMARKS
ELKINS         LGT RAIN  41  39  93 W9G18     30.16F
$$

WVZ052-020600-
Eastern Panhandle of West Virginia

CITY           SKY/WX    TMP DP  RH WIND       PRES   REMARKS
MARTINSBURG    CLOUDY    32  28  85 CALM      30.15F FOG
PETERSBURG     CLOUDY    36  36 100 E5        30.12F
$$



USA.gov is the U.S. government's official web portal to all federal, state and local government web resources and services.